World > North America > United States > Iowa

Hanna, Iowa Regional Weather

Lat: 42.95N, Lon: 94.02W
Wx Zone: IAZ005Web Search

If you are on your PC, you can easily pass this page to your phone by scanning the QR Code near the bottom with your camera.

Feedback


°F Click to change Hanna hourly weather to Imperial units.Click to change Hanna hourly weather to Metric units. °C
Hanna Weather Map
UTC Time: 5/19/2021, 00:13
Your Time:

Hanna, IA Regional Weather

Expires:202105190100;;335359
ASUS43 KDMX 190006
RWRIA 

WEATHER ROUNDUP FOR IOWA
NATIONAL WEATHER SERVICE DES MOINES IA
700 PM CDT TUE MAY 18 2021

NOTE: "FAIR" INDICATES FEW OR NO CLOUDS BELOW 12,000 FEET WITH NO
SIGNIFICANT WEATHER AND/OR OBSTRUCTIONS TO VISIBILITY.

* - THESE STATIONS ARE NOT NWS STATIONS...THUS NOT UNDER NWS
QUALITY CONTROL.  THEY ALSO DO NOT REPORT WEATHER SUCH 
AS PRECIPITATION OR FOG.  


IAZ004>006-015-016-023>025-035-036-190100-
   NORTH CENTRAL IOWA
  
CITY           SKY/WX    TMP DP  RH WIND       PRES   REMARKS
ALGONA *       FOG       63  63 100 SE9       29.94F VSB 1            
CLARION *      CLOUDY    64  64 100 SE14      29.95F                  
ESTHERVILLE    CLOUDY    61  61 100 SE10      29.95F FOG              
6HR MIN TEMP:  60; 6HR MAX TEMP:  63; 6HR PCP: TRACE;                

FORT DODGE *   LGT RAIN  64  63  96 CALM      29.95S FOG              
MASON CITY     CLOUDY    63  60  90 SE13      29.98F                  
6HR MIN TEMP:  61; 6HR MAX TEMP:  63; 6HR PCP:  0.01;                

FOREST CITY *  CLOUDY    63  63 100 SE9       29.97F                  
WEBSTER CITY * CLOUDY    64  64 100 SE12      29.93F FOG              
$$


SKY/WX - Weather  TMP - Temperature  DP - Dew Point  RH - Relative Humidity
WIND - Wind Direction/Speed PRES - Barometric Pressure VSB - Visibility
WCI - Wind Chill Index E13G22 Wind - East Wind 13 mph/Gusts of 22 mph